Showing default

COSMOS 2251, 22675

Orbit data source: Space-Track

COSMOS 2251, 22675 is a payload satellite owned by VKS (CIS) in LEO that was launched on Wed, 16 Jun 1993 UTC via a KOSMOS 11K65M launch vehicle from the Plesetsk Missile And Space Complex (PKMTR). Payload-class satellites include a variety of spacecraft equipped with specific instruments for various scientific and technological missions. These include communications satellites like Starlink; space stations such as the ISS; scientific satellites like the Hubble; Earth observation satellites from companies like Planet Labs, Umbra, and HawkEye 360; GPS; miniature CubeSats for education and research; and military/defense satellites.

Loading next visibility...
Identifier
22675, 1993-036A
Orbit
LEO
Country
Flag of CISCIS
Related business
Manufacturer
NPO PM
Mission
Defense Communications
Bus & Motor
STRELA-2M, Unknown motor
Mass
800 kg wet, 800 kg dry
Launch date (UTC)
1993-06-16 (33 years ago)
Launch vehicle
KOSMOS 11K65M
Launch site
Plesetsk Missile And Space Complex (PKMTR)
Object type
Payload
Rocket body
Debris
Shape & HBR
Cyl, 1.5 m
Radar Cross Section
6.283 m², Large (>1 m²)

Expand to show TLE details & history
Last TLE update: 8 hours ago

TLE from 8 hours ago
0 COSMOS 2251
1 22675U 93036A   26238.25965705  .00000053  00000-0  28551-4 0  9996
2 22675  74.0383 207.1664 0025737 231.1855 128.6998 14.33266532734488
Epoch: 2026-08-26T06:13Z
TLE epoch observation values (Epoch: 2026-08-26T06:13:54.369Z)
Latitude
-0.00006°
Longitude
139.17463°
Altitude
794.992 km
Speed
7.45 km/s
True Right ascension
13h 48m 39s
True Declination
0° 00' 00"
Sunlit
Object was in daylight at epoch
Visualization orbit readout
Latitude
Unknown
Longitude
Unknown
Altitude
Unknown
Speed
Unknown
Apparent Right ascension
Unknown
Apparent Declination
Unknown
Sunlit
N/A
Visualization observer readout
Local Sidereal Time
05:03:03
Azimuth
Unknown
Elevation
Unknown
Doppler factor
Unknown
Orbital elements
Apogee altitude
796.879 km
Perigee altitude
760.041 km
Semi-major axis
7,156.597 km
Eccentricity
0.00257
Inclination
74.0383°
RAAN
207.1664°
Arg. of periapsis
231.1855°
True anomaly
128.92951°
Mean anomaly
128.6998°
Eccentric anomaly
128.8147°
Mean motion
3.58495 °/min
Orbital period
100.42 mins
BSTAR
0.000028551

Documentation

Showing up to 5 results
|